Date String (YYYY-MM-DD hh:mm:ss) UTC,Instrument flags,absolute air pressure of the measurement (hPa),sample flow rate (lpm),inlet stack bypass flow (lpm),air temperature of the measurement (°C),ambient temperature measured by the external sensor (°C),aerosol sample conditioner tube jacket temperature (°C),OPC LED temperature (°C),internal box temperature (°C),relative humidity of the measurement (%),span deviation,mass concentration of particles derived from Lorenz-Mie calculation of OPC scattering (μg/m³),mass concentration of particles derived from Lorenz-Mie calculation of OPC scattering (μg/m³),mass concentration of particles derived from Lorenz-Mie calculation of OPC scattering (μg/m³)
DateTimeUTC,F1_M11,P_M11,Q1_M11,Q2_M11,T1_M11,T2_M11,T3_M11,T4_M11,T5_M11,U1_M11,ZSPAN_M11,X0_M11,X2_M11,X1_M11
2024-01-10 02:00:00,SystemResetWarning,0813.4,5.00,000.00,019.7,018.7,000.0,028.1,021.0,10.7,0000.0,0005.09,0000.48,0000.30
2024-01-10 02:01:00,SystemResetWarning,0813.5,4.99,000.00,019.7,018.7,000.0,028.1,021.0,10.7,0000.0,0005.25,0000.43,0000.29
2024-01-10 02:02:00,SystemResetWarning,0813.5,4.99,000.00,019.7,018.7,000.0,028.1,020.9,10.8,0000.0,0005.24,0000.43,0000.29
2024-01-10 02:03:00,SystemResetWarning,0813.4,5.01,000.00,019.7,018.6,000.0,028.1,020.9,10.8,0000.0,0004.51,0000.45,0000.29
2024-01-10 02:04:00,SystemResetWarning,0813.2,5.00,000.00,019.7,018.6,000.0,028.1,020.9,10.8,0000.0,0003.89,0000.44,0000.30
2024-01-10 02:05:00,SystemResetWarning,0813.4,5.00,000.00,019.7,018.6,000.0,028.0,020.8,10.8,0000.0,0003.46,0000.43,0000.29
2024-01-10 02:06:00,SystemResetWarning,0813.3,5.00,000.00,019.6,018.6,000.0,028.0,020.8,10.8,0000.0,0002.08,0000.41,0000.29
2024-01-10 02:07:00,SystemResetWarning,0813.4,5.01,000.00,019.6,018.6,000.0,028.0,020.8,10.8,0000.0,0002.04,0000.39,0000.29
2024-01-10 02:08:00,SystemResetWarning,0813.4,5.00,000.00,019.6,018.6,000.0,028.0,020.7,10.8,0000.0,0002.03,0000.39,0000.28
2024-01-10 02:09:00,SystemResetWarning,0813.2,5.01,000.00,019.6,018.6,000.0,028.0,020.7,10.8,0000.0,0002.04,0000.39,0000.28
2024-01-10 02:10:00,SystemResetWarning,0813.2,5.00,000.00,019.6,018.6,000.0,028.0,020.6,10.8,0000.0,0001.98,0000.37,0000.28
2024-01-10 02:11:00,SystemResetWarning,0813.2,4.98,000.00,019.5,018.6,000.0,028.0,020.6,10.8,0000.0,0001.17,0000.36,0000.28
2024-01-10 02:12:00,SystemResetWarning,0813.3,4.99,000.00,019.5,018.5,000.0,028.0,020.6,10.9,0000.0,0000.92,0000.36,0000.28
2024-01-10 02:13:00,SystemResetWarning,0813.4,5.00,000.00,019.5,018.4,000.0,027.9,020.6,10.9,0000.0,0002.16,0000.37,0000.27
2024-01-10 02:14:00,SystemResetWarning,0813.4,5.01,000.00,019.5,018.4,000.0,027.9,020.6,11.0,0000.0,0002.00,0000.35,0000.27
2024-01-10 02:15:00,SystemResetWarning,0813.3,5.00,000.00,019.5,018.5,000.0,027.9,020.6,11.0,0000.0,0001.86,0000.35,0000.28
2024-01-10 02:16:00,SystemResetWarning,0813.2,5.00,000.00,019.5,018.5,000.0,027.9,020.6,10.9,0000.0,0001.85,0000.37,0000.28
2024-01-10 02:17:00,SystemResetWarning,0813.2,5.00,000.00,019.5,018.5,000.0,027.9,020.5,10.9,0000.0,0001.88,0000.38,0000.28
2024-01-10 02:18:00,SystemResetWarning,0813.2,5.00,000.00,019.4,018.5,000.0,027.9,020.5,10.9,0000.0,0001.91,0000.40,0000.28
2024-01-10 02:19:00,SystemResetWarning,0813.3,5.00,000.00,019.4,018.5,000.0,027.9,020.5,10.9,0000.0,0001.92,0000.40,0000.27
2024-01-10 02:20:00,SystemResetWarning,0813.3,5.00,000.00,019.4,018.5,000.0,027.9,020.5,10.9,0000.0,0001.93,0000.40,0000.28
2024-01-10 02:21:00,SystemResetWarning,0813.3,5.00,000.00,019.4,018.4,000.0,027.8,020.5,10.9,0000.0,0001.95,0000.41,0000.28
2024-01-10 02:22:00,SystemResetWarning,0813.3,5.00,000.00,019.4,018.4,000.0,027.8,020.4,10.9,0000.0,0001.99,0000.42,0000.28
2024-01-10 02:23:00,SystemResetWarning,0813.4,5.00,000.00,019.3,018.4,000.0,027.8,020.4,10.9,0000.0,0002.09,0000.44,0000.28
2024-01-10 02:24:00,SystemResetWarning,0813.4,5.00,000.00,019.3,018.4,000.0,027.8,020.3,10.9,0000.0,0000.89,0000.44,0000.28
2024-01-10 02:25:00,SystemResetWarning,0813.5,5.00,000.00,019.3,018.4,000.0,027.8,020.4,10.9,0000.0,0000.81,0000.44,0000.29
2024-01-10 02:26:00,SystemResetWarning,0813.5,5.00,000.00,019.3,018.4,000.0,027.8,020.4,10.9,0000.0,0000.78,0000.43,0000.28
2024-01-10 02:27:00,SystemResetWarning,0813.4,5.00,000.00,019.3,018.4,000.0,027.7,020.3,10.8,0000.0,0000.80,0000.44,0000.28
2024-01-10 02:28:00,SystemResetWarning,0813.3,5.00,000.00,019.3,018.4,000.0,027.7,020.3,10.8,0000.0,0000.76,0000.42,0000.27
2024-01-10 02:29:00,SystemResetWarning,0813.2,5.00,000.00,019.3,018.4,000.0,027.7,020.4,10.8,0000.0,0001.21,0000.41,0000.27
2024-01-10 02:30:00,SystemResetWarning,0813.2,5.00,000.00,019.2,018.3,000.0,027.7,020.3,10.7,0000.0,0001.50,0000.41,0000.27
2024-01-10 02:31:00,SystemResetWarning,0813.3,5.00,000.00,019.2,018.3,000.0,027.7,020.4,10.7,0000.0,0001.50,0000.40,0000.26
2024-01-10 02:32:00,SystemResetWarning,0813.3,4.99,000.00,019.3,018.3,000.0,027.7,020.4,10.6,0000.0,0001.54,0000.42,0000.27
2024-01-10 02:33:00,SystemResetWarning,0813.4,5.00,000.00,019.3,018.2,000.0,027.7,020.4,10.5,0000.0,0001.50,0000.41,0000.27
2024-01-10 02:34:00,SystemResetWarning,0813.4,5.00,000.00,019.3,018.2,000.0,027.6,020.4,10.5,0000.0,0001.42,0000.40,0000.27
2024-01-10 02:35:00,SystemResetWarning,0813.5,5.00,000.00,019.3,018.2,000.0,027.6,020.4,10.5,0000.0,0001.38,0000.39,0000.26
2024-01-10 02:36:00,SystemResetWarning,0813.5,5.00,000.00,019.3,018.2,000.0,027.6,020.4,10.5,0000.0,0001.39,0000.40,0000.27
2024-01-10 02:37:00,SystemResetWarning,0813.3,5.00,000.00,019.3,018.2,000.0,027.6,020.5,10.4,0000.0,0001.39,0000.40,0000.27
2024-01-10 02:38:00,SystemResetWarning,0813.4,5.00,000.00,019.3,018.2,000.0,027.6,020.5,10.3,0000.0,0001.39,0000.38,0000.27
2024-01-10 02:39:00,SystemResetWarning,0813.4,5.00,000.00,019.3,018.2,000.0,027.6,020.4,10.3,0000.0,0001.49,0000.40,0000.27
2024-01-10 02:40:00,SystemResetWarning,0813.4,5.00,000.00,019.3,018.2,000.0,027.6,020.5,10.4,0000.0,0001.17,0000.42,0000.26
2024-01-10 02:41:00,SystemResetWarning,0813.5,5.00,000.00,019.3,018.2,000.0,027.6,020.5,10.4,0000.0,0000.97,0000.43,0000.26
2024-01-10 02:42:00,SystemResetWarning,0813.5,5.00,000.00,019.3,018.3,000.0,027.6,020.4,10.4,0000.0,0001.08,0000.44,0000.27
2024-01-10 02:43:00,SystemResetWarning,0813.5,5.01,000.00,019.3,018.3,000.0,027.6,020.3,10.5,0000.0,0001.02,0000.42,0000.26
2024-01-10 02:44:00,SystemResetWarning,0813.5,5.00,000.00,019.2,018.3,000.0,027.6,020.3,10.5,0000.0,0001.02,0000.42,0000.26
2024-01-10 02:45:00,SystemResetWarning,0813.6,5.01,000.00,019.2,018.3,000.0,027.6,020.3,10.5,0000.0,0001.03,0000.42,0000.26
2024-01-10 02:46:00,SystemResetWarning,0813.6,5.00,000.00,019.2,018.3,000.0,027.6,020.3,10.5,0000.0,0001.02,0000.41,0000.25
2024-01-10 02:47:00,SystemResetWarning,0813.6,5.00,000.00,019.2,018.3,000.0,027.6,020.3,10.4,0000.0,0001.24,0000.40,0000.24
2024-01-10 02:48:00,SystemResetWarning,0813.6,5.00,000.00,019.2,018.3,000.0,027.6,020.4,10.4,0000.0,0001.62,0000.41,0000.24
2024-01-10 02:49:00,SystemResetWarning,0813.6,5.00,000.00,019.2,018.3,000.0,027.6,020.4,10.3,0000.0,0001.61,0000.42,0000.24
2024-01-10 02:50:00,SystemResetWarning,0813.7,5.00,000.00,019.2,018.4,000.0,027.6,020.4,10.2,0000.0,0001.64,0000.44,0000.25
2024-01-10 02:51:00,SystemResetWarning,0813.7,5.00,000.00,019.2,018.4,000.0,027.6,020.4,10.3,0000.0,0002.00,0000.43,0000.25
2024-01-10 02:52:00,SystemResetWarning,0813.6,5.00,000.00,019.2,018.3,000.0,027.6,020.4,10.3,0000.0,0002.08,0000.43,0000.26
2024-01-10 02:53:00,SystemResetWarning,0813.7,5.00,000.00,019.2,018.3,000.0,027.6,020.4,10.2,0000.0,0001.97,0000.42,0000.26
2024-01-10 02:54:00,SystemResetWarning,0813.6,5.00,000.00,019.2,018.3,000.0,027.6,020.4,10.2,0000.0,0002.18,0000.46,0000.26
2024-01-10 02:55:00,SystemResetWarning,0813.5,4.99,000.00,019.2,018.3,000.0,027.5,020.4,10.2,0000.0,0002.19,0000.45,0000.25
2024-01-10 02:56:00,SystemResetWarning,0813.5,5.00,000.00,019.2,018.3,000.0,027.5,020.4,10.3,0000.0,0002.17,0000.44,0000.25
2024-01-10 02:57:00,SystemResetWarning,0813.5,5.00,000.00,019.2,018.3,000.0,027.5,020.3,10.4,0000.0,0002.19,0000.45,0000.25
2024-01-10 02:58:00,SystemResetWarning,0813.6,5.00,000.00,019.2,018.3,000.0,027.5,020.3,10.4,0000.0,0002.12,0000.45,0000.25
2024-01-10 02:59:00,SystemResetWarning,0813.5,5.00,000.00,019.2,018.2,000.0,027.5,020.3,10.5,0000.0,0002.35,0000.46,0000.26
